Regional Weather Roundup
Issued by NWS

Home | Current Version | Previous Version | Graphics & Text | Print | Product List | Glossary On
Versions: 1 2 3 4 5 6 7 8 9 10 11 12 13 14 15 16 17 18 19 20 21 22 23 24 25 26 27 28 29 30 31 32 33 34 35 36 37 38 39 40 41 42 43 44 45 46 47 48 49 50
000
ASUS43 KBIS 282302
RWRND

NORTH DAKOTA REGIONAL WEATHER ROUNDUP
NATIONAL WEATHER SERVICE BISMARCK ND
600 PM CDT FRI AUG 28 2015

NOTE: "FAIR" INDICATES FEW OR NO CLOUDS BELOW 12,000 FEET WITH NO
SIGNIFICANT WEATHER AND/OR OBSTRUCTIONS TO VISIBILITY.


NDZ001>003-009>011-017-290000-
NORTHWEST NORTH DAKOTA

CITY           SKY/WX    TMP DP  RH WIND       PRES   REMARKS
WILLISTON      PTSUNNY   88  46  23 W9        29.88S HAZE
MINOT          MOSUNNY   84  60  44 NE3       29.85S
MINOT AFB      MOSUNNY   87  57  36 CALM      29.84S
$$

NDZ018>021-031>035-040>046-290000-
SOUTHWEST NORTH DAKOTA

CITY           SKY/WX    TMP DP  RH WIND       PRES   REMARKS
BISMARCK       SUNNY     89  62  40 SW7       29.87S
DICKINSON      PTSUNNY   87  46  24 W9        29.92R
GARRISON         N/A     85  30  13 SW5       29.88R
HETTINGER ARPT MOSUNNY   86  50  28 W13       29.96S HAZE
$$

NDZ004>008-012>016-024-026-027-054-290000-
NORTHEAST NORTH DAKOTA

CITY           SKY/WX    TMP DP  RH WIND       PRES   REMARKS
GRAND FORKS    PTSUNNY   81  68  64 S16G24    29.81S
GRND FRKS AFB  MOSUNNY   83  69  61 MISG      29.81S
DEVILS LAKE    SUNNY     82  64  54 W7        29.84R
$$

NDZ022-023-025-028>030-036>039-047>053-290000-
SOUTHEAST NORTH DAKOTA

CITY           SKY/WX    TMP DP  RH WIND       PRES   REMARKS
FARGO          SUNNY     82  67  60 S18       29.87S
JAMESTOWN      SUNNY     80  70  71 S16       29.87S
$$



USA.gov is the U.S. government's official web portal to all federal, state and local government web resources and services.